Location: Unspecified
(0.0000°N, 0.0000°E)
Time: 22:33:47
(UTC+00:00)

PCSat - Pass Details

Date: 26 September 2020
Orbit: 785 x 794 km, 67.1° (Epoch: 30 October)

Event Time Altitude Azimuth Distance (km) Brightness Sun altitude
Exits shadow 03:49:11 37° 159° (SSE) 1,214 10.6 -30.5°
Drops below altitude 10° 03:52:21 10° 160° (SSE) 2,353 12.2 -29.7°
Sets 03:54:46 0° 160° (SSE) 3,282 13.0 -29.1°
